Showing default

METEOR 3-5, 21655

Orbit data source: Space-Track

METEOR 3-5, 21655 is a payload satellite owned by Rosgidromet (CIS) in LEO that was launched on Thu, 15 Aug 1991 UTC via a TSIKLON-3 launch vehicle from the Plesetsk Missile And Space Complex (PKMTR). Payload-class satellites include a variety of spacecraft equipped with specific instruments for various scientific and technological missions. These include communications satellites like Starlink; space stations such as the ISS; scientific satellites like the Hubble; Earth observation satellites from companies like Planet Labs, Umbra, and HawkEye 360; GPS; miniature CubeSats for education and research; and military/defense satellites.

Loading next visibility...
Identifier
21655, 1991-056A
Orbit
LEO
Country
Flag of CISCIS
Related business
Manufacturer
VNIIEM
Mission
Civil Weather
Bus & Motor
METEOR-3, Unknown motor
Mass
2,150 kg wet, 2,150 kg dry
Launch date (UTC)
1991-08-15 (34 years ago)
Launch vehicle
TSIKLON-3
Launch site
Plesetsk Missile And Space Complex (PKMTR)
Object type
Payload
Rocket body
Debris
Shape & HBR
Cyl + 2 Pan, 6.3 m
Radar Cross Section
21.153 m², Large (>1 m²)

Expand to show TLE details & history
Last TLE update: 15 hours ago

TLE from 15 hours ago
0 METEOR 3-5
1 21655U 91056A   26037.01058609 -.00000029  00000-0 -10665-3 0  9991
2 21655  82.5526 232.0455 0014354 104.5053 255.7663 13.17155618657308
Epoch: 2026-02-06T00:15Z
TLE epoch observation values (Epoch: 2026-02-06T00:15:14.638Z)
Latitude
0.00001°
Longitude
92.07991°
Altitude
1,201.1 km
Speed
7.252 km/s
True Right ascension
15h 28m 10s
True Declination
0° 00' 00"
Sunlit
Object was in daylight at epoch
Visualization orbit readout
Latitude
Unknown
Longitude
Unknown
Altitude
Unknown
Speed
Unknown
Apparent Right ascension
Unknown
Apparent Declination
Unknown
Sunlit
N/A
Visualization observer readout
Local Sidereal Time
17:22:20
Azimuth
Unknown
Elevation
Unknown
Doppler factor
Unknown
Orbital elements
Apogee altitude
1,203.716 km
Perigee altitude
1,181.981 km
Semi-major axis
7,570.985 km
Eccentricity
0.00144
Inclination
82.5526°
RAAN
232.0455°
Arg. of periapsis
104.5053°
True anomaly
255.60694°
Mean anomaly
255.7663°
Eccentric anomaly
255.68661°
Mean motion
3.29469 °/min
Orbital period
109.27 mins
BSTAR
-0.00010665
Loading maneuver chart data...
Computing Atmospheric mass density...
Loading historical data...
Loading historical data...
Loading historical data...
Loading historical data...
Loading historical data...
Loading historical data...
Loading historical data...

Documentation

Showing up to 5 results
|